Meteo Giornale » Osservazioni meteo Corea del Sud » Cheongdo Tmq-53P
ore: 15:10 - Osservazioni Meteo Cheongdo Tmq-53P
Lat. 35° 39' N Lon. 128° 43' E Alt. 111 metri s.l.m.
29 °C
Coperto
Temp. 24 Ore
22 °C
33 °C
Nord
1.8 Km/h
Dew point 23 °C
Umidità 70 %
Visibilità 10 Km
Il sole sorge alle ore 05:56
Il sole tramonta alle ore 18:53
| Data e Ora | Cielo e Fenomeni | T °C | DP °C | Um. % | Pres. hPa | Vis. km | Vento km/h | |
|---|---|---|---|---|---|---|---|---|
| Oggi h: 15:10 | Coperto | 29 | 23 | 70 | 1014 | 10 | N 1.8 | |
| Oggi h: 15:00 | Molto Nuvoloso | 30 | 23 | 66 | 1014 | 10 | N 5.5 | |
| Oggi h: 14:50 | Molto Nuvoloso | 29 | 23 | 70 | 1013 | 10 | N 5.5 | |
| Oggi h: 14:40 | Molto Nuvoloso | 30 | 22 | 62 | 1013 | 10 | SE 7.4 | |
| Oggi h: 14:30 | Molto Nuvoloso | 31 | 23 | 62 | 1013 | 10 | E/SE 7.4 | |
| Oggi h: 14:20 | Molto Nuvoloso | 31 | 23 | 62 | 1013 | 10 | SE 9.3 | |
| Oggi h: 14:10 | Molto Nuvoloso | 31 | 24 | 66 | 1013 | 10 | N 3.7 | |
| Oggi h: 14:00 | Molto Nuvoloso | 31 | 23 | 62 | 1013 | 10 | SE 7.4 | |
| Oggi h: 13:50 | Molto Nuvoloso | 30 | 24 | 70 | 1013 | 10 | N 3.7 | |
| Oggi h: 13:40 | Molto Nuvoloso | 31 | 24 | 66 | 1013 | 10 | N 5.5 | |
| Oggi h: 13:30 | Molto Nuvoloso | 32 | 23 | 59 | 1013 | 10 | O/SO 7.4 | |
| Oggi h: 13:20 | Molto Nuvoloso | 33 | 23 | 55 | 1013 | 10 | N 3.7 | |
| Oggi h: 13:10 | Molto Nuvoloso | 33 | 23 | 55 | 1013 | 10 | N 3.7 | |
| Oggi h: 13:00 | Molto Nuvoloso | 33 | 23 | 55 | 1013 | 10 | N 1.8 | |
| Oggi h: 12:50 | Molto Nuvoloso | 33 | 23 | 55 | 1013 | 10 | N 3.7 | |
| Oggi h: 12:40 | Molto Nuvoloso | 31 | 23 | 62 | 1013 | 10 | SE 7.4 | |
| Oggi h: 12:30 | Nuvoloso | 32 | 23 | 59 | 1013 | 10 | N 3.7 | |
| Oggi h: 12:20 | Nuvoloso | 33 | 23 | 55 | 1013 | 10 | N 1.8 | |
| Oggi h: 12:10 | Nuvoloso | 31 | 23 | 62 | 1014 | 10 | N 1.8 | |
| Oggi h: 12:00 | Molto Nuvoloso | 30 | 23 | 66 | 1014 | 10 | N 3.7 | |
| Oggi h: 11:50 | Molto Nuvoloso | 31 | 23 | 62 | 1014 | 10 | N 1.8 | |
| Oggi h: 11:40 | Molto Nuvoloso | 31 | 23 | 62 | 1014 | 10 | N 1.8 | |
| Oggi h: 11:30 | Nuvoloso | 31 | 23 | 62 | 1014 | 10 | N 3.7 | |
| Oggi h: 11:20 | Nuvoloso | 31 | 23 | 62 | 1014 | 10 | N 1.8 | |
| Oggi h: 11:10 | Molto Nuvoloso | 31 | 23 | 62 | 1014 | 10 | N 1.8 | |
| Oggi h: 11:00 | Molto Nuvoloso | 30 | 23 | 66 | 1014 | 10 | N 5.5 | |
| Oggi h: 10:50 | Molto Nuvoloso | 30 | 23 | 66 | 1014 | 10 | N 5.5 | |
| Oggi h: 10:40 | Molto Nuvoloso | 30 | 23 | 66 | 1014 | 10 | N 5.5 | |
| Oggi h: 10:30 | Molto Nuvoloso | 30 | 23 | 66 | 1014 | 10 | N 3.7 | |
| Oggi h: 10:20 | Molto Nuvoloso | 30 | 23 | 66 | 1014 | 10 | N 5.5 | |
| Oggi h: 10:10 | Nuvoloso | 30 | 23 | 66 | 1014 | 10 | N 1.8 | |
| Oggi h: 10:00 | Poco Nuvoloso | 29 | 24 | 74 | 1014 | 10 | N 1.8 | |
| Oggi h: 09:50 | Nuvoloso | 27 | 24 | 83 | 1014 | 10 | N 3.7 | |
| Oggi h: 09:40 | Nuvoloso | 27 | 24 | 83 | 1014 | 10 | N 3.7 | |
| Oggi h: 09:30 | Nuvoloso | 27 | 24 | 83 | 1014 | 10 | N 1.8 | |
| Oggi h: 09:20 | Poco Nuvoloso | 26 | 24 | 88 | 1014 | 10 | N 5.5 | |
| Oggi h: 09:10 | Poco Nuvoloso | 26 | 24 | 88 | 1014 | 10 | N 3.7 | |
| Oggi h: 09:00 | Nuvoloso | 26 | 25 | 94 | 1014 | 10 | N 3.7 | |
| Oggi h: 08:50 | Molto Nuvoloso | 25 | 25 | 100 | 1014 | 10 | N 3.7 | |
| Oggi h: 08:40 | Coperto | 25 | 24 | 94 | 1014 | 6 | N 3.7 | |
| Oggi h: 08:30 | Banco di nebbia | 24 | 24 | 100 | 1015 | 2 | N 5.5 | |
| Oggi h: 08:20 | Banco di nebbia | 23 | 23 | 100 | 1015 | 2 | N 3.7 | |
| Oggi h: 08:10 | Foschia | 23 | 23 | 100 | 1015 | 2 | N 3.7 | |
| Oggi h: 08:00 | Nebbia | 23 | 23 | 100 | 1015 | 0.4 | N 3.7 | |
| Oggi h: 07:50 | Banco di nebbia | 23 | 23 | 100 | 1015 | 0.4 | N 3.7 | |
| Oggi h: 07:40 | Banco di nebbia | 23 | 23 | 100 | 1015 | 2 | N 1.8 | |
| Oggi h: 07:30 | Foschia | 23 | 23 | 100 | 1015 | 1 | N 0 | |
| Oggi h: 07:20 | Nebbia | 23 | 23 | 100 | 1014 | 0.4 | N 1.8 | |
| Oggi h: 07:10 | Nebbia | 23 | 23 | 100 | 1014 | 0 | N 1.8 | |
| Oggi h: 07:00 | Nebbia | 23 | 23 | 100 | 1014 | 0 | N 1.8 | |
| Oggi h: 06:50 | Nebbia | 23 | 23 | 100 | 1014 | 0.4 | N 1.8 | |
| Oggi h: 06:40 | Nebbia | 23 | 23 | 100 | 1014 | 0.4 | N 1.8 | |
| Oggi h: 06:30 | Nebbia | 23 | 23 | 100 | 1014 | 0 | N 1.8 | |
| Oggi h: 06:20 | Nebbia | 23 | 23 | 100 | 1014 | 0 | N 1.8 | |
| Oggi h: 06:10 | Nebbia | 23 | 23 | 100 | 1014 | 0 | N 0 | |
| Oggi h: 06:00 | Nebbia | 23 | 23 | 100 | 1014 | 0 | N 1.8 | |
| Oggi h: 05:50 | Nebbia | 23 | 23 | 100 | 1014 | 0 | N 1.8 | |
| Oggi h: 05:40 | Nebbia | 23 | 23 | 100 | 1014 | 0 | N 5.5 | |
| Oggi h: 05:30 | Nebbia | 23 | 23 | 100 | 1014 | 0 | N 1.8 | |
| Oggi h: 05:20 | Nebbia | 22 | 22 | 100 | 1014 | 0 | N 3.7 | |
| Oggi h: 05:10 | Nebbia | 22 | 22 | 100 | 1013 | 0 | N 1.8 | |
| Oggi h: 05:00 | Nebbia | 22 | 22 | 100 | 1013 | 0 | N 1.8 | |
| Oggi h: 04:50 | Nebbia | 22 | 22 | 100 | 1013 | 0 | N 1.8 | |
| Oggi h: 04:40 | Nebbia | 22 | 22 | 100 | 1013 | 0 | N 1.8 | |
| Oggi h: 04:30 | Nebbia | 23 | 23 | 100 | 1013 | 0 | N 3.7 | |
| Oggi h: 04:20 | Nebbia | 23 | 23 | 100 | 1013 | 0.4 | N 3.7 | |
| Oggi h: 04:10 | Nebbia | 23 | 23 | 100 | 1013 | 0 | N 0 | |
| Oggi h: 04:00 | Foschia | 23 | 23 | 100 | 1014 | 2 | N 1.8 | |
| Oggi h: 03:50 | Foschia | 23 | 23 | 100 | 1014 | 2 | N 1.8 | |
| Oggi h: 03:40 | Banco di nebbia | 23 | 23 | 100 | 1014 | 3 | N 5.5 | |
| Oggi h: 03:30 | Banco di nebbia | 23 | 23 | 100 | 1013 | 0.4 | N 3.7 | |
| Oggi h: 03:20 | Banco di nebbia | 23 | 23 | 100 | 1013 | 9 | N 1.8 | |
| Oggi h: 03:10 | Banco di nebbia | 23 | 23 | 100 | 1013 | 0.4 | N 3.7 | |
| Oggi h: 03:00 | Nebbia | 23 | 23 | 100 | 1013 | 0.4 | N 1.8 | |
| Oggi h: 02:50 | Nebbia | 23 | 23 | 100 | 1013 | 0.4 | N 1.8 | |
| Oggi h: 02:40 | Poco Nuvoloso | 23 | 23 | 100 | 1013 | 10 | N 0 | |
| Oggi h: 02:30 | Poco Nuvoloso | 23 | 23 | 100 | 1013 | 10 | N 3.7 | |
| Oggi h: 02:20 | Nuvoloso | 24 | 24 | 100 | 1013 | 10 | N 1.8 | |
| Oggi h: 02:10 | Molto Nuvoloso | 23 | 23 | 100 | 1013 | 10 | N 1.8 | |
| Oggi h: 02:00 | Nuvoloso | 24 | 24 | 100 | 1013 | 10 | N 1.8 | |
| Oggi h: 01:50 | Poco Nuvoloso | 23 | 23 | 100 | 1013 | 10 | N 3.7 | |
| Oggi h: 01:40 | Sereno | 24 | 24 | 100 | 1013 | 10 | N 0 | |
| Oggi h: 01:30 | Sereno | 24 | 24 | 100 | 1013 | 10 | N 1.8 | |
| Oggi h: 01:20 | Sereno | 24 | 24 | 100 | 1013 | 10 | N 1.8 | |
| Oggi h: 01:10 | Sereno | 24 | 24 | 100 | 1014 | 10 | N 1.8 | |
| Oggi h: 01:00 | Poco Nuvoloso | 24 | 24 | 100 | 1014 | 10 | N 0 | |
| Oggi h: 00:50 | Poco Nuvoloso | 24 | 24 | 100 | 1014 | 10 | N 1.8 | |
| Oggi h: 00:40 | Poco Nuvoloso | 24 | 24 | 100 | 1014 | 10 | N 0 | |
| Oggi h: 00:30 | Sereno | 24 | 24 | 100 | 1014 | 10 | N 1.8 | |
| Oggi h: 00:20 | Sereno | 24 | 24 | 100 | 1014 | 10 | N 1.8 | |
| Oggi h: 00:10 | Sereno | 24 | 24 | 100 | 1014 | 10 | N 1.8 | |
| Oggi h: 00:00 | Sereno | 25 | 24 | 94 | 1014 | 10 | N 1.8 | |
| Ieri h: 23:50 | Sereno | 25 | 24 | 94 | 1014 | 10 | N 3.7 | |
| Ieri h: 23:40 | Sereno | 24 | 24 | 100 | 1014 | 10 | N 3.7 | |
| Ieri h: 23:30 | Sereno | 24 | 24 | 100 | 1014 | 10 | N 1.8 | |
| Ieri h: 23:20 | Sereno | 25 | 24 | 94 | 1014 | 10 | N 1.8 | |
| Ieri h: 23:10 | Sereno | 25 | 24 | 94 | 1014 | 10 | N 3.7 | |
| Ieri h: 23:00 | Sereno | 25 | 24 | 94 | 1014 | 10 | N 5.5 | |
| Ieri h: 22:50 | Sereno | 25 | 24 | 94 | 1014 | 10 | N 3.7 | |
| Ieri h: 22:40 | Sereno | 25 | 24 | 94 | 1014 | 10 | N 3.7 | |
| Ieri h: 22:30 | Sereno | 26 | 24 | 88 | 1014 | 10 | N 1.8 | |
| Ieri h: 22:20 | Sereno | 26 | 24 | 88 | 1014 | 10 | N 1.8 | |
| Ieri h: 22:10 | Sereno | 25 | 24 | 94 | 1014 | 10 | N 1.8 | |
| Ieri h: 22:00 | Sereno | 26 | 24 | 88 | 1014 | 10 | N 3.7 | |
| Ieri h: 21:50 | Sereno | 26 | 24 | 88 | 1013 | 10 | N 1.8 | |
| Ieri h: 21:40 | Sereno | 26 | 24 | 88 | 1013 | 10 | N 1.8 | |
| Ieri h: 21:30 | Sereno | 26 | 24 | 88 | 1013 | 10 | N 1.8 | |
| Ieri h: 21:20 | Poco Nuvoloso | 27 | 24 | 83 | 1013 | 10 | N 1.8 | |
| Ieri h: 21:10 | Nuvoloso | 27 | 24 | 83 | 1013 | 10 | N 3.7 | |
| Ieri h: 21:00 | Molto Nuvoloso | 27 | 24 | 83 | 1012 | 10 | N 1.8 | |
| Ieri h: 20:50 | Molto Nuvoloso | 27 | 24 | 83 | 1012 | 10 | N 3.7 | |
| Ieri h: 20:40 | Nuvoloso | 27 | 24 | 83 | 1012 | 10 | N 3.7 | |
| Ieri h: 20:30 | Poco Nuvoloso | 27 | 24 | 83 | 1012 | 10 | N 3.7 | |
| Ieri h: 20:20 | Sereno | 27 | 24 | 83 | 1012 | 10 | N 5.5 | |
| Ieri h: 20:10 | Sereno | 27 | 24 | 83 | 1012 | 10 | N 5.5 | |
| Ieri h: 20:00 | Sereno | 28 | 24 | 78 | 1011 | 10 | N 5.5 | |
| Ieri h: 19:50 | Sereno | 28 | 23 | 74 | 1011 | 10 | N 3.7 | |
| Ieri h: 19:40 | Sereno | 28 | 23 | 74 | 1011 | 10 | N 3.7 | |
| Ieri h: 19:30 | Sereno | 28 | 23 | 74 | 1011 | 10 | N 1.8 | |
| Ieri h: 19:20 | Sereno | 29 | 23 | 70 | 1011 | 10 | N 1.8 | |
| Ieri h: 19:10 | Sereno | 29 | 23 | 70 | 1011 | 10 | N 5.5 | |
| Ieri h: 19:00 | Sereno | 29 | 23 | 70 | 1011 | 10 | N 3.7 | |
| Ieri h: 18:50 | Sereno | 29 | 23 | 70 | 1011 | 10 | N 5.5 | |
| Ieri h: 18:40 | Sereno | 29 | 23 | 70 | 1011 | 10 | N 5.5 | |
| Ieri h: 18:30 | Sereno | 30 | 23 | 66 | 1011 | 10 | N 5.5 | |
| Ieri h: 18:20 | Sereno | 30 | 23 | 66 | 1011 | 10 | N 5.5 | |
| Ieri h: 18:10 | Sereno | 30 | 23 | 66 | 1011 | 10 | N 5.5 | |
| Ieri h: 18:00 | Sereno | 31 | 23 | 62 | 1011 | 10 | N 5.5 | |
| Ieri h: 17:50 | Sereno | 31 | 23 | 62 | 1011 | 10 | N 5.5 | |
| Ieri h: 17:40 | Sereno | 31 | 23 | 62 | 1011 | 10 | N 5.5 | |
| Ieri h: 17:30 | Sereno | 31 | 23 | 62 | 1011 | 10 | S/SE 9.3 | |
| Ieri h: 17:20 | Sereno | 31 | 23 | 62 | 1011 | 10 | SE 7.4 | |
| Ieri h: 17:10 | Sereno | 32 | 23 | 59 | 1011 | 10 | S/SE 7.4 | |
| Ieri h: 17:00 | Sereno | 32 | 23 | 59 | 1011 | 10 | N 5.5 | |
| Ieri h: 16:50 | Poco Nuvoloso | 32 | 23 | 59 | 1011 | 10 | N 5.5 | |
| Ieri h: 16:40 | Poco Nuvoloso | 32 | 23 | 59 | 1011 | 10 | N 3.7 | |
| Ieri h: 16:30 | Poco Nuvoloso | 32 | 23 | 59 | 1010 | 10 | N 5.5 | |
| Ieri h: 16:20 | Poco Nuvoloso | 33 | 24 | 59 | 1010 | 10 | N 1.8 | |
| Ieri h: 16:10 | Poco Nuvoloso | 32 | 23 | 59 | 1010 | 10 | N 5.5 | |
| Ieri h: 16:00 | Poco Nuvoloso | 33 | 23 | 55 | 1010 | 10 | N 5.5 | |
| Ieri h: 15:50 | Poco Nuvoloso | 33 | 23 | 55 | 1010 | 10 | N 3.7 | |
| Ieri h: 15:40 | Poco Nuvoloso | 33 | 22 | 52 | 1010 | 10 | N 5.5 | |



